Weather History for China Lake, CA

Change the Weather History Date:

Monday, April 29, 2013

  Actual Average Record
Temperature  
Mean Temperature 76 °F -  
Max Temperature 98 °F 78 °F 98 °F (2013)
Min Temperature 55 °F 53 °F 37 °F (2005)
Cooling Degree Days 10    
Growing Degree Days 26 (Base 50)    
Moisture  
Dew Point 31 °F    
Average Humidity 20    
Maximum Humidity 37    
Minimum Humidity 6    
Precipitation  
Precipitation 0.00 in - - ()
Sea Level Pressure  
Sea Level Pressure 29.71 in    
Wind  
Wind Speed 5 mph (SW)    
Max Wind Speed 20 mph    
Max Gust Speed 26 mph    
Visibility 10 miles    
Events      
Averages and records for this station are not official NWS values.
T = Trace of Precipitation, MM = Missing Value Source: NWS Daily Summary

Daily Weather History Graph

Daily Weather History Graph

Search for Another Location

Airport:

Trip Planner

Search our weather history database for the weather conditions in past years. The results will help you decide how hot, cold, wet, or windy it might be!

Date:

Astronomy

Apr. 29, 2013 Rise Set
Actual Time 6:00 AM PDT 7:36 PM PDT
Civil Twilight 5:33 AM PDT 8:03 PM PDT
Nautical Twilight 5:00 AM PDT 8:36 PM PDT
Astronomical Twilight 4:26 AM PDT 9:10 PM PDT
Moon No Moon Rise 9:29 AM PDT (4/29)
Length of Visible Light 14h 29m
Length of Day
13h 35m
Waning Gibbous, 79% of the Moon is Illuminated
Apr 29
Waning Gibbous
May 2
Last Quarter
May 9
New
May 17
First Quarter
May 24
Full

Hourly Weather History & Observations

Time (PDT) Temp. Dew Point Humidity Pressure Visibility Wind Dir Wind Speed Gust Speed Precip Events Conditions
12:56 AM 70.0 °F 37.0 °F 30% 29.78 in 10.0 mi SW 3.5 mph - N/A   Clear
1:56 AM 66.9 °F 33.1 °F 28% 29.78 in 10.0 mi SW 3.5 mph - N/A   Clear
2:56 AM 63.0 °F 32.0 °F 31% 29.77 in 10.0 mi Calm Calm - N/A   Clear
3:56 AM 60.1 °F 30.9 °F 33% 29.78 in 10.0 mi North 5.8 mph - N/A   Clear
4:56 AM 59.0 °F 30.0 °F 33% 29.78 in 10.0 mi Calm Calm - N/A   Clear
5:56 AM 55.9 °F 30.0 °F 37% 29.78 in 10.0 mi NW 5.8 mph - N/A   Clear
6:56 AM 61.0 °F 30.9 °F 32% 29.81 in 10.0 mi Calm Calm - N/A   Clear
7:56 AM 70.0 °F 35.1 °F 28% 29.81 in 10.0 mi Calm Calm - N/A   Clear
8:56 AM 75.9 °F 36.0 °F 23% 29.81 in 10.0 mi Calm Calm - N/A   Clear
9:56 AM 82.9 °F 35.1 °F 18% 29.80 in 10.0 mi Calm Calm - N/A   Clear
10:56 AM 88.0 °F 32.0 °F 14% 29.79 in 10.0 mi East 4.6 mph - N/A   Clear
11:56 AM 90.0 °F 28.9 °F 11% 29.78 in 10.0 mi Variable 3.5 mph - N/A   Clear
12:56 PM 93.0 °F 28.9 °F 10% 29.74 in 10.0 mi ESE 8.1 mph - N/A   Partly Cloudy
1:56 PM 95.0 °F 25.0 °F 8% 29.71 in 10.0 mi South 8.1 mph - N/A   Partly Cloudy
2:56 PM 96.1 °F 21.9 °F 7% 29.66 in 10.0 mi Variable 4.6 mph 20.7 mph N/A   Partly Cloudy
3:56 PM 96.1 °F 19.9 °F 6% 29.64 in 10.0 mi SSE 9.2 mph 23.0 mph N/A   Partly Cloudy
4:56 PM 96.1 °F 30.9 °F 10% 29.61 in 10.0 mi SW 17.3 mph 24.2 mph N/A   Clear
5:56 PM 93.0 °F 28.9 °F 10% 29.60 in 10.0 mi WSW 19.6 mph 26.5 mph N/A   Clear
6:56 PM 89.1 °F 35.1 °F 15% 29.61 in 10.0 mi SW 16.1 mph 21.9 mph N/A   Clear
7:56 PM 84.0 °F 37.9 °F 19% 29.60 in 10.0 mi SW 6.9 mph 17.3 mph N/A   Partly Cloudy
8:56 PM 81.0 °F 35.1 °F 19% 29.61 in 10.0 mi SW 4.6 mph - N/A   Clear
9:56 PM 80.1 °F 35.1 °F 20% 29.60 in 10.0 mi SW 5.8 mph - N/A   Clear
10:56 PM 77.0 °F 33.1 °F 20% 29.60 in 10.0 mi Calm Calm - N/A   Clear
11:56 PM 77.0 °F 33.1 °F 20% 29.59 in 10.0 mi WSW 9.2 mph - N/A   Clear